Location: Hanston Wastewater Treatment Plant
(38.1262°N, 99.7049°W)
Time: 19:03:49
(UTC+00:00)

Daily predictions for brighter satellites

Satellite Brightness Start Highest point End
(mag) Time Altitude Azimuth Time Altitude Azimuth Time Altitude Azimuth
Cosmos 1151 Rocket 3.4 12:02:02 10° S 12:06:20 69° E 12:10:38 10° NNE
CZ-4B R/B 1.1 12:04:00 10° S 12:07:10 81° WSW 12:10:17 10° NNW
Cosmos 1140 Rocket 4.4 12:02:46 10° S 12:07:49 52° ESE 12:12:52 10° NNE
SJ-12 4.1 12:05:24 10° N 12:09:18 46° WNW 12:13:10 10° SSW
CENTAUR R/B 3.7 12:05:10 10° NNW 12:13:27 67° NE 12:22:19 10° SE
Cosmos 1933 3.4 12:11:19 10° SSW 12:15:15 53° W 12:19:12 10° N
NOSS 3-4 (A) 3.6 12:10:51 10° SSW 12:16:37 75° ESE 12:22:43 10° NE
Cosmos 2251 Rocket 4.0 12:11:45 10° SW 12:16:42 39° WNW 12:21:42 10° N
NOSS 3-4 (C) 3.6 12:10:56 10° SSW 12:16:43 74° ESE 12:22:48 10° NE
Cosmos 2333 4.3 12:11:05 10° NNW 12:16:54 88° WSW 12:22:40 10° SSE
YAOGAN 6 2.6 12:16:10 10° NNE 12:19:41 78° E 12:23:09 10° S
Meteor 1-26 Rocket 4.3 12:15:33 10° S 12:21:08 90° WSW 12:26:57 10° N
Cosmos 2360 Rocket 2.6 12:18:22 10° NW 12:23:38 40° WSW 12:28:52 10° S
Cosmos 1689 Rocket 3.2 12:23:08 10° SSE 12:25:49 44° ENE 12:28:33 10° N
COSMOS 2487 3.6 12:24:18 10° WSW 12:27:01 22° WNW 12:29:45 10° NNW
CZ-4B R/B 3.3 12:25:25 10° N 12:29:46 51° WNW 12:34:08 10° SSW
Cosmos 1328 Rocket 3.4 12:26:23 10° SSW 12:30:40 75° W 12:34:59 10° N
ATLAS 2AS CENTAUR R/B 3.5 12:23:42 10° SSW 12:31:29 68° ESE 12:39:17 10° NE
COSMO-SKYMED 1 3.1 12:28:37 10° SSW 12:32:37 37° W 12:36:40 10° NNW
Cosmos 2333 Rocket 2.2 12:27:07 10° NNW 12:32:54 81° WSW 12:38:40 10° SSE
SeaSat 1 3.3 12:32:26 10° SSW 12:36:37 28° WSW 12:40:49 10° NW
CZ-2C R/B 3.7 12:31:22 10° SSE 12:36:47 55° ENE 12:42:16 10° N
Cosmos 1470 Rocket 4.0 12:34:10 10° N 12:38:31 67° E 12:42:48 10° SSE
Cosmos 2227 Rocket 4.3 12:36:11 10° SSE 12:41:10 33° ESE 12:46:12 10° NE
